Lancaster, PA

6:04 PM EDT on October 21, 2017 (GMT -0400)
Lancaster

Weather History for KLNS - February, 2013

Change the Weather History Date:

Wednesday, February 20, 2013

  Actual Average Record
Temperature  
Mean Temperature 28 °F -  
Max Temperature 32 °F 46 °F 62 °F (2016)
Min Temperature 21 °F 25 °F -5 °F (1979)
Degree Days  
Heating Degree Days 38    
Moisture  
Dew Point 11 °F    
Average Humidity 51    
Maximum Humidity 58    
Minimum Humidity 43    
Precipitation  
Precipitation 0.00 in - - ()
Sea Level Pressure  
Sea Level Pressure 29.97 in    
Wind  
Wind Speed 18 mph (WNW)    
Max Wind Speed 28 mph    
Max Gust Speed 36 mph    
Visibility 10 miles    
Events      
Averages and records for this station are not official NWS values.
T = Trace of Precipitation, MM = Missing Value Source: NWS Daily Summary

Daily Weather History Graph

Daily Weather History Graph

Search for Another Location

Airport or City:

Trip Planner

Search our weather history database for the weather conditions in past years. The results will help you decide how hot, cold, wet, or windy it might be!

Date:

Astronomy

Feb. 20, 2013 Rise Set
Actual Time 6:51 AM EST 5:47 PM EST
Civil Twilight 6:23 AM EST 6:14 PM EST
Nautical Twilight 5:52 AM EST 6:46 PM EST
Astronomical Twilight 5:20 AM EST 7:17 PM EST
Moon 1:06 PM EST (2/20) 3:09 AM EST (2/20)
Length of Visible Light 11h 50m
Length of Day
10h 55m
Waxing Gibbous, 76% of the Moon is Illuminated
Feb 20
Waxing Gibbous
Feb 25
Full
Mar 4
Last Quarter
Mar 11
New
Mar 19
First Quarter

Hourly Weather History & Observations

Time (EST) Temp. Windchill Dew Point Humidity Pressure Visibility Wind Dir Wind Speed Gust Speed Precip Events Conditions
12:53 AM 32.0 °F 23.0 °F 18.0 °F 56% 29.83 in 10.0 mi WNW 11.5 mph - N/A   Clear
1:53 AM 30.9 °F 19.4 °F 16.0 °F 54% 29.83 in 10.0 mi WNW 17.3 mph 26.5 mph N/A   Clear
2:53 AM 30.0 °F 17.9 °F 14.0 °F 51% 29.86 in 10.0 mi WNW 18.4 mph 27.6 mph N/A   Clear
3:53 AM 28.0 °F 18.6 °F 15.1 °F 58% 29.86 in 10.0 mi WNW 10.4 mph - N/A   Clear
4:53 AM 28.9 °F 16.1 °F 16.0 °F 58% 29.87 in 10.0 mi WNW 19.6 mph 27.6 mph N/A   Overcast
5:53 AM 27.0 °F 12.2 °F 10.9 °F 51% 29.90 in 10.0 mi WNW 24.2 mph 35.7 mph N/A   Clear
6:53 AM 27.0 °F 12.2 °F 10.9 °F 51% 29.93 in 10.0 mi WNW 24.2 mph 33.4 mph N/A   Mostly Cloudy
7:53 AM 26.1 °F 14.5 °F 12.9 °F 58% 29.96 in 10.0 mi NW 13.8 mph 21.9 mph N/A   Overcast
8:53 AM 26.1 °F 12.0 °F 12.0 °F 55% 29.98 in 9.0 mi NW 20.7 mph 28.8 mph 0.00 in   Overcast
9:53 AM 26.1 °F 12.7 °F 10.9 °F 53% 29.99 in 10.0 mi West 18.4 mph 27.6 mph N/A   Overcast
10:53 AM 27.0 °F 12.8 °F 9.0 °F 47% 29.98 in 10.0 mi WNW 21.9 mph 29.9 mph N/A   Mostly Cloudy
11:53 AM 28.9 °F 14.0 °F 9.0 °F 43% 29.97 in 10.0 mi WNW 27.6 mph 34.5 mph N/A   Mostly Cloudy
12:53 PM 28.0 °F 14.9 °F 10.9 °F 49% 29.97 in 10.0 mi West 19.6 mph 28.8 mph N/A   Overcast
1:53 PM 30.0 °F 16.6 °F 10.0 °F 43% 29.97 in 10.0 mi WNW 23.0 mph 32.2 mph N/A   Mostly Cloudy
2:53 PM 28.0 °F 14.3 °F 10.0 °F 47% 29.99 in 10.0 mi West 21.9 mph 26.5 mph N/A   Overcast
3:53 PM 27.0 °F 12.8 °F 10.9 °F 51% 30.01 in 10.0 mi WNW 21.9 mph 26.5 mph N/A   Overcast
4:53 PM 27.0 °F 12.8 °F 9.0 °F 47% 30.03 in 10.0 mi WNW 21.9 mph 28.8 mph N/A   Overcast
5:53 PM 26.1 °F 12.7 °F 9.0 °F 49% 30.04 in 10.0 mi West 18.4 mph 26.5 mph N/A   Mostly Cloudy
6:53 PM 25.0 °F 11.7 °F 10.0 °F 53% 30.06 in 10.0 mi WNW 17.3 mph - N/A   Partly Cloudy
7:53 PM 25.0 °F 10.9 °F 9.0 °F 51% 30.07 in 10.0 mi NW 19.6 mph 28.8 mph N/A   Clear
8:53 PM 24.1 °F 11.0 °F 7.0 °F 48% 30.08 in 10.0 mi WNW 16.1 mph - N/A   Clear
9:53 PM 23.0 °F 9.6 °F 8.1 °F 53% 30.08 in 10.0 mi WNW 16.1 mph - N/A   Clear
11:53 PM 21.9 °F 9.8 °F 8.1 °F 55% 30.09 in 10.0 mi West 12.7 mph - N/A   Clear